User: anonymous   Login
Location: Unspecified
(0.0000°N, 0.0000°E)
Time: 21:45:32
(UTC+00:00)
Language:

COSMOS-2409 - Orbit

View from above orbital plane
View from above orbital plane
View from above satellite
View from above satellite

Ground track
Ground track

The orbit data is extracted from the following two-line orbital elements,

1 28420U 04037B   17117.72320194 +.00000002 +00000-0 -57944-4 0  9991
2 28420 082.4833 258.2243 0013858 034.2286 325.9686 12.45270151572429
Epoch (UTC): 27 April 2017 17:21:24
Eccentricity: 0.0013858
inclination: 82.4833°
perigee height: 1473 km
apogee height: 1495 km
right ascension of ascending node: 258.2243°
argument of perigee: 34.2286°
revolutions per day: 12.45270151
mean anomaly at epoch: 325.9686°
orbit number at epoch: 57242

The dashed part of the orbit path shows where the satellite is in the earth's shadow,  

DLR